Torna al catalogo

COSMOS 2091

AttivoMilitarePO
NORAD 20736·PAYLOAD·🇷🇺 Russia

Lanciato Aug 8, 1990 da Plesetsk Cosmodrome

Loading…

Prossimi Passaggi (prossime 24 ore)

TLE

AggiornatoSource: Space-Track

Epoca: Sep 14, 2026, 12:30 UTC

1 20736U 90070B   26257.52149594  .00000010  00000-0 -11967-5 0  9996
2 20736  82.5726 271.1300 0002285 267.0325 247.6309 12.62561756663586

Traccia COSMOS 2091 in tempo reale con AllMySat

Download on the App Store